Weather History for Van Nuys, CA

Change the Weather History Date:

Wednesday, December 4, 2013

  Actual Average Record
Temperature  
Mean Temperature 52 °F -  
Max Temperature 60 °F 65 °F 86 °F (2007)
Min Temperature 44 °F 44 °F 36 °F (2004)
Degree Days  
Heating Degree Days 12    
Growing Degree Days 2 (Base 50)    
Moisture  
Dew Point 18 °F    
Average Humidity 29    
Maximum Humidity 52    
Minimum Humidity 13    
Precipitation  
Precipitation 0.00 in - - ()
Sea Level Pressure  
Sea Level Pressure 29.88 in    
Wind  
Wind Speed 11 mph (NNW)    
Max Wind Speed 24 mph    
Max Gust Speed 33 mph    
Visibility 10 miles    
Events      
Averages and records for this station are not official NWS values.
T = Trace of Precipitation, MM = Missing Value Source: NWS Daily Summary

Daily Weather History Graph

Daily Weather History Graph

Search for Another Location

Airport:

Trip Planner

Search our weather history database for the weather conditions in past years. The results will help you decide how hot, cold, wet, or windy it might be!

Date:

Astronomy

Dec. 04, 2013 Rise Set
Actual Time 6:44 AM PST 4:44 PM PST
Civil Twilight 6:17 AM PST 5:11 PM PST
Nautical Twilight 5:45 AM PST 5:42 PM PST
Astronomical Twilight 5:15 AM PST 6:13 PM PST
Moon 8:18 AM PST (12/4) 6:57 PM PST (12/4)
Length of Visible Light 10h 54m
Length of Day
9h 59m
Waxing Crescent, 5% of the Moon is Illuminated
Dec 4
Waxing Crescent
Dec 9
First Quarter
Dec 17
Full
Dec 25
Last Quarter
Jan 1
New

Hourly Weather History & Observations

Time (PST) Temp. Windchill Dew Point Humidity Pressure Visibility Wind Dir Wind Speed Gust Speed Precip Events Conditions
12:51 AM 50.0 °F - 33.1 °F 52% 29.76 in 10.0 mi NNW 6.9 mph - N/A   Clear
1:51 AM 48.9 °F - 19.0 °F 31% 29.77 in 10.0 mi North 16.1 mph 24.2 mph N/A   Clear
2:51 AM 48.0 °F - 19.0 °F 32% 29.78 in 10.0 mi North 17.3 mph 25.3 mph N/A   Clear
3:51 AM 46.9 °F - 19.0 °F 33% 29.80 in 10.0 mi North 24.2 mph 33.4 mph N/A   Clear
4:51 AM 46.9 °F - 18.0 °F 32% 29.83 in 10.0 mi North 20.7 mph 27.6 mph N/A   Clear
5:51 AM 46.9 °F - 19.0 °F 33% 29.85 in 10.0 mi NNE 16.1 mph 28.8 mph N/A   Clear
6:51 AM 45.0 °F 37.9 °F 18.0 °F 34% 29.89 in 10.0 mi North 16.1 mph - N/A   Clear
7:51 AM 46.9 °F - 18.0 °F 32% 29.92 in 10.0 mi NNW 10.4 mph - N/A   Clear
8:51 AM 50.0 °F - 17.1 °F 27% 29.93 in 10.0 mi NNW 11.5 mph - N/A   Clear
9:51 AM 54.0 °F - 12.9 °F 20% 29.92 in 10.0 mi NNW 13.8 mph 18.4 mph N/A   Clear
10:51 AM 57.0 °F - 12.0 °F 17% 29.92 in 10.0 mi North 16.1 mph 24.2 mph N/A   Clear
11:51 AM 59.0 °F - 10.0 °F 14% 29.89 in 10.0 mi North 17.3 mph 23.0 mph N/A   Clear
12:51 PM 60.1 °F - 10.0 °F 14% 29.87 in 10.0 mi NNW 9.2 mph 16.1 mph N/A   Clear
1:51 PM 60.1 °F - 9.0 °F 13% 29.86 in 10.0 mi NNW 10.4 mph - N/A   Clear
2:51 PM 59.0 °F - 10.0 °F 14% 29.87 in 10.0 mi NW 5.8 mph - N/A   Clear
3:51 PM 57.9 °F - 12.0 °F 16% 29.87 in 10.0 mi Variable 4.6 mph - N/A   Clear
4:51 PM 55.0 °F - 21.0 °F 27% 29.89 in 10.0 mi Calm Calm - N/A   Clear
5:51 PM 52.0 °F - 21.9 °F 31% 29.91 in 10.0 mi WSW 3.5 mph - N/A   Clear
6:51 PM 51.1 °F - 21.9 °F 32% 29.92 in 10.0 mi Calm Calm - N/A   Clear
7:51 PM 50.0 °F - 21.9 °F 33% 29.93 in 10.0 mi Calm Calm - N/A   Partly Cloudy
8:51 PM 48.9 °F - 21.9 °F 35% 29.94 in 10.0 mi Calm Calm - N/A   Mostly Cloudy
9:51 PM 46.9 °F - 23.0 °F 39% 29.95 in 10.0 mi Calm Calm - N/A   Clear
10:51 PM 45.0 °F - 21.9 °F 40% 29.95 in 10.0 mi Calm Calm - N/A   Clear
11:51 PM 44.1 °F - 26.1 °F 49% 29.95 in 10.0 mi Calm Calm - 0.00 in   Clear